Regional Weather Roundup
Issued by NWS

Home | Current Version | Previous Version | Text Only | Print | Product List | Glossary On
Versions: 1 2 3 4 5 6 7 8 9 10 11 12 13 14 15 16 17 18 19 20 21 22 23 24 25 26 27 28 29 30 31 32 33 34 35 36 37 38 39 40 41 42 43 44 45 46 47 48 49 50
000
ASUS43 KFSD 221610
RWRSD

WEATHER ROUNDUP FOR SOUTH DAKOTA
NATIONAL WEATHER SERVICE SIOUX FALLS SD
1100 AM CDT MON MAY 22 2017

NOTE: "FAIR" INDICATES FEW OR NO CLOUDS BELOW 12,000 FEET WITH NO
SIGNIFICANT WEATHER AND/OR OBSTRUCTIONS TO VISIBILITY.


SDZ001>005-009-010-012>017-221700-
NORTHWEST AND NORTH CENTRAL SOUTH DAKOTA

CITY           SKY/WX    TMP DP  RH WIND       PRES   REMARKS
BUFFALO          N/A     55  43  63 NW23      29.96R
FAITH            N/A     56  45  66 N17G28    29.97S
MOBRIDGE       LGT RAIN  52  45  77 N10       29.91R
$$

SDZ012>016-024>037-041>051-057-063-072>074-221700-
SOUTHWEST AND SOUTH CENTRAL SOUTH DAKOTA

CITY           SKY/WX    TMP DP  RH WIND       PRES   REMARKS
RAPID CTY ARPT MOSUNNY   60  40  47 N24G33    30.01S
PIERRE         CLOUDY    55  47  74 NW16      29.92F
CUSTER         CLOUDY    51  30  44 NW13G22   30.04F
ELLSWORTH AFB  SUNNY     59  40  47 N21G31    30.00F
PHILIP         MOSUNNY   62  45  53 NW17G25   29.97S
PINE RIDGE     PTSUNNY   56  45  66 NW8       30.04S
SPEARFISH      FAIR      54  41  62 N17       30.05F
WINNER         FAIR      56  47  71 NW13      29.97R
$$

SDZ004>011-016>023-039-040-221700-
NORTHEAST SOUTH DAKOTA

CITY           SKY/WX    TMP DP  RH WIND       PRES   REMARKS
ABERDEEN       CLOUDY    58  38  47 N16       29.90F
WATERTOWN      SUNNY     59  46  62 N7        29.87S
BROOKINGS      MOSUNNY   61  48  62 W8        29.87S
SISSETON         N/A     54  42  64 N9        29.88S
$$

SDZ017-020-022-023-036>040-048>070-221700-
SOUTHEAST SOUTH DAKOTA

CITY           SKY/WX    TMP DP  RH WIND       PRES   REMARKS
SIOUX FALLS    PTSUNNY   64  50  60 W9        29.88S
HURON          LGT RAIN  52  48  86 W17       29.90R
CHAMBERLAIN    CLOUDY    55  49  82 NW10      29.95R
MITCHELL       CLOUDY    57  46  66 W16       29.92R
YANKTON          N/A     63  49  60 SW13      29.91F
$$

ABBREVIATIONS USED IN REMARKS
   TC - TEMPERATURE IN CELSIUS
  WCI - WIND CHILL INDEX
   HX - HEAT INDEX
  VSB - VISIBILITY





USA.gov is the U.S. government's official web portal to all federal, state and local government web resources and services.